This is the latest recevied weather packets stored in our database for station/object N2ZVN. If no packets are shown the sender has not sent any weather packets the latest 1 day(s).
| Time | Temp. | Humidity | Pressure | Rain* | Wind** | Luminosity | Snow |
|---|---|---|---|---|---|---|---|
| 1778048830 | 7.78° C | 96% | 1009.9 hPa | 1.78 mm | 0.89 m/s, 84° | 0 W/m² | - |
| 1778048526 | 7.78° C | 96% | 1010 hPa | 1.78 mm | 0.45 m/s, 84° | 0 W/m² | - |
| 1778048222 | 7.78° C | 96% | 1010 hPa | 1.27 mm | 0 m/s | 0 W/m² | - |
| 1778047920 | 7.78° C | 96% | 1010 hPa | 3.05 mm | 0.89 m/s, 96° | 0 W/m² | - |
| 1778047619 | 7.78° C | 97% | 1009.9 hPa | 1.78 mm | 0.89 m/s, 89° | 0 W/m² | - |
| 1778047315 | 7.78° C | 96% | 1010.4 hPa | 1.78 mm | 0.45 m/s, 83° | 0 W/m² | - |
| 1778047012 | 7.78° C | 96% | 1010.4 hPa | 1.27 mm | 0.45 m/s, 74° | 0 W/m² | - |
| 1778046709 | 7.78° C | 96% | 1010.2 hPa | 3.05 mm | 0.45 m/s, 91° | 0 W/m² | - |
| 1778046406 | 7.78° C | 96% | 1010.5 hPa | 3.05 mm | 0 m/s | 0 W/m² | - |
| 1778046102 | 7.78° C | 97% | 1010.7 hPa | 3.05 mm | 0.45 m/s, 86° | 0 W/m² | - |
| 1778045800 | 7.78° C | 97% | 1010.6 hPa | 3.05 mm | 0.45 m/s, 86° | 0 W/m² | - |
| 1778045498 | 8.33° C | 97% | 1010.7 hPa | 3.05 mm | 2.24 m/s, 91° | 0 W/m² | - |
| 1778045196 | 8.33° C | 97% | 1010.7 hPa | 3.05 mm | 0 m/s | 0 W/m² | - |
| 1778044894 | 8.33° C | 97% | 1010.6 hPa | 3.05 mm | 0.45 m/s, 54° | 0 W/m² | - |
| 1778044591 | 8.33° C | 97% | 1010.6 hPa | 4.83 mm | 0 m/s | 0 W/m² | - |
| 1778044287 | 8.33° C | 97% | 1010.6 hPa | 3.56 mm | 0.45 m/s, 53° | 0 W/m² | - |
| 1778043985 | 8.33° C | 97% | 1010.4 hPa | 3.56 mm | 0.45 m/s, 53° | 0 W/m² | - |
| 1778043682 | 8.89° C | 97% | 1010.3 hPa | 3.05 mm | 0 m/s | 0 W/m² | - |
| 1778043379 | 8.89° C | 97% | 1010.5 hPa | 4.32 mm | 0 m/s | 0 W/m² | - |
| 1778043075 | 8.89° C | 97% | 1010.3 hPa | 1.27 mm | 0.45 m/s, 52° | 0 W/m² | - |
| 1778042773 | 8.89° C | 97% | 1010 hPa | 0 mm | 0 m/s | 0 W/m² | - |
| 1778042470 | 8.89° C | 97% | 1010.4 hPa | 1.78 mm | 0 m/s | 0 W/m² | - |
| 1778042167 | 8.89° C | 97% | 1010.3 hPa | 3.05 mm | 0 m/s | 0 W/m² | - |
| 1778041865 | 8.89° C | 97% | 1010 hPa | 1.27 mm | 0.45 m/s, 37° | 0 W/m² | - |
| 1778041564 | 8.89° C | 97% | 1010.1 hPa | 1.78 mm | 0 m/s | 0 W/m² | - |
* Rain latest hour (hover to see other rain measurements)
** Current wind speed in m/s (hover to see current wind gust speed)